Location: Six Mile Lake
(44.9000°N, 79.7170°W)
Time: 02:42:43
(UTC-04:00)

JY1SAT - Pass Details

Date: 03 July 2022
Orbit: 564 x 586 km, 97.6° (Epoch: 07 August)

Event Time Altitude Azimuth Distance (km) Brightness Sun altitude
Exits shadow 22:47:06 18° 169° (S) 1,440 ? -13.4°
Maximum altitude 22:50:05 84° 256° (WSW) 597 ? -13.7°
Drops below altitude 10° 22:54:16 10° 346° (NNW) 1,920 ? -14.2°
Sets 22:56:26 0° 347° (NNW) 2,823 ? -14.4°
